[[{"header":{"parameterUnit":"m.s-1","parameterCategory":1,"la1":30.2991,"la2":30.254,"lo1":-89.0895,"lo2":-89.0444,"dy":0.0017,"dx":0.0017,"nx":28,"ny":28,"refTime":"2025-11-06T09:00:00:Z","depth":0,"parameterNumber":2,"parameterNumberName":"U-component_of_WINDS"},"data":[0,0,0,0,0,0,0,0,0,0,0,0,0,0,0,0,0,0,0,0,0,0,0,0,0,0,0,0,0,0,0,0,0,0,0,0,0,0,0,0,0,0,0,0,0,0,0,0,0,0,0,0,0,0,0,0,0,0,1.5977,1.5977,0,1.6002,1.6002,1.6003,1.5948,1.5947,1.5945,1.5943,1.5969,1.5971,1.5973,0,0,0,0,0,0,0,0,0,0,0,0,0,1.5883,1.5885,1.5977,1.5977,1.5978,1.6002,1.6002,1.6003,1.5949,1.5947,1.5944,1.5942,1.5968,1.5971,1.5974,0,0,0,0,0,0,0,0,0,0,0,0,0,1.5917,1.5885,1.5977,1.5954,1.5952,1.6002,1.6002,1.6003,1.5949,1.5947,1.5944,1.5941,1.5967,1.597,1.5974,1.6048,0,0,1.5985,1.5986,0,0,0,0,0,0,0,0,1.5915,1.5921,1.5957,1.5955,1.5953,1.5969,1.5978,1.6018,1.595,1.595,1.5943,1.594,1.5971,1.5974,1.5985,1.6049,1.605,1.5985,1.5987,1.5988,1.5989,0,0,0,0,0,0,0,1.5913,1.592,1.5987,1.5957,1.5955,1.5942,1.5944,1.5986,1.5975,1.595,1.5946,1.595,1.597,1.5981,1.5985,1.6051,1.5985,1.5988,1.599,1.5991,1.6178,1.6181,0,0,0,0,0,0,1.5914,1.5918,1.5986,1.5988,1.5928,1.5946,1.5948,1.5967,1.5974,1.5973,1.5952,1.5947,1.5977,1.5981,1.5985,1.6073,1.5988,1.5992,1.5994,1.6176,1.6179,1.6182,0,0,0,0,0,0,1.5912,1.592,1.5985,1.5952,1.5959,1.595,1.5972,1.5969,1.598,1.5976,1.5974,1.5966,1.5975,1.5981,1.6033,1.6073,1.5993,1.5996,1.6172,1.6177,1.6181,1.6249,0,0,0,0,0,0,1.5909,1.592,1.5948,1.5953,1.5961,1.6032,1.5974,1.5971,1.5987,1.598,1.5988,1.5987,1.5973,1.6028,1.6037,1.6077,1.5999,1.6168,1.6174,1.6179,1.6243,1.6255,1.6266,0,0,0,0,0,1.5906,1.5966,1.5949,1.5958,1.5996,1.6035,1.6039,1.6022,1.599,1.6018,1.6016,1.5987,1.6068,1.6034,1.6043,1.6085,1.6166,1.6173,1.6179,1.6238,1.6253,1.6265,0,0,0,0,0,0,1.5965,1.5966,1.5948,1.6011,1.6023,1.6025,1.606,1.6038,1.606,1.6053,1.603,1.6033,1.609,1.6092,1.6055,1.6157,1.6111,1.612,1.6154,1.6168,1.6179,1.6177,1.6002,0,0,0,0,0,1.5985,1.6017,1.6016,1.6072,1.6079,1.6069,1.6085,1.6071,1.6083,1.6088,1.6089,1.6101,1.613,1.6149,1.6174,1.6244,1.6245,1.6277,1.6288,1.6297,1.6305,1.6343,1.6357,1.6204,1.6203,1.6203,0,0,1.6027,1.6032,1.6053,1.6084,1.6092,1.6125,1.6073,1.6111,1.6136,1.6093,1.6143,1.6145,1.6157,1.6219,1.6246,1.6223,1.6348,1.6306,1.6313,1.6316,1.6351,1.6366,1.6379,1.6208,1.6207,1.6206,0,0,1.6121,1.6128,1.6175,1.6185,1.6198,1.6191,1.6203,1.6209,1.6208,1.6258,1.6227,1.6257,1.6306,1.6316,1.6328,1.6428,1.6403,1.6437,1.6496,1.6533,1.6545,1.6556,1.6592,1.6605,1.6445,1.6445,1.6445,0,1.6172,1.6221,1.6202,1.6243,1.6257,1.6221,1.627,1.6279,1.63,1.6311,1.6285,1.6347,1.6353,1.6417,1.6442,1.6452,1.6465,1.6436,1.6545,1.6555,1.6565,1.6599,1.6613,1.6449,1.6449,1.6448,1.6448,0,1.6283,1.6318,1.6355,1.6377,1.6396,1.644,1.6428,1.6449,1.6434,1.643,1.6482,1.6488,1.6515,1.6529,1.6514,1.6592,1.6577,1.6549,1.6502,1.6584,1.6616,1.6629,1.6455,1.6454,1.6453,1.6452,0,0,1.6413,1.6425,1.6439,1.6449,1.6462,1.6489,1.6532,1.6559,1.6578,1.6594,1.663,1.6673,1.6647,1.666,1.6646,1.6679,1.6759,1.6646,1.6646,1.6667,1.6846,1.6868,1.6883,1.6743,1.6745,1.6747,1.6845,0,1.6506,1.658,1.6566,1.6638,1.6671,1.6638,1.6676,1.6688,1.6686,1.6713,1.6711,1.6742,1.6705,1.6713,1.6744,1.6743,1.6795,1.6736,1.6776,1.6778,1.6774,1.69,1.6922,1.7014,1.6857,1.6859,1.6861,0,1.6624,1.6646,1.6722,1.6732,1.6745,1.6779,1.6803,1.683,1.6843,1.6839,1.6856,1.6836,1.6879,1.6833,1.6892,1.6852,1.6868,1.687,1.6874,1.6877,1.6824,1.6906,1.7043,1.7057,1.688,1.6879,1.6877,0,1.6712,1.676,1.6813,1.6822,1.6834,1.6859,1.6865,1.6876,1.6894,1.6915,1.6926,1.6952,1.6966,1.6987,1.6975,1.6942,1.7037,1.6989,1.7036,1.7036,1.7057,1.7056,1.7198,1.7067,1.7067,1.7067,1.7067,0,1.6818,1.6866,1.6852,1.6884,1.6938,1.6921,1.6974,1.6976,1.6987,1.7019,1.6992,1.7023,1.7005,1.7035,1.7026,1.7077,1.7084,1.7082,1.7079,1.7085,1.7085,1.7095,1.7088,1.7071,1.707,1.7069,1.7068,0,1.6924,1.6917,1.6972,1.6979,1.6982,1.7021,1.7028,1.7058,1.7055,1.7096,1.7105,1.7099,1.7133,1.7124,1.716,1.7154,1.7219,1.7208,1.7215,1.7212,1.7259,1.7255,1.7413,1.7433,1.7289,1.729,1.7292,0,1.6991,1.7028,1.704,1.706,1.7069,1.7101,1.7119,1.7105,1.7125,1.7144,1.7172,1.7204,1.7228,1.7284,1.7283,1.7311,1.7301,1.7354,1.7305,1.7309,1.7302,1.73,1.7304,1.7364,1.7366,1.7367,1.7368,0,1.7112,1.7108,1.7135,1.7163,1.7186,1.7206,1.7224,1.7242,1.7229,1.7253,1.7288,1.7307,1.7345,1.7377,1.7403,1.7409,1.7387,1.7384,1.7396,1.7402,1.7404,1.7404,1.7242,1.738,1.7379,1.7378,1.7377,1.7377,1.7201,1.7233,1.7247,1.7279,1.7292,1.731,1.7339,1.734,1.7369,1.7399,1.7389,1.7429,1.7443,1.7475,1.7485,1.7516,1.7496,1.7514,1.7518,1.7523,1.7529,1.74,1.7521,1.7521,1.752,1.752,1.752,0,1.7321,1.7329,1.7359,1.7386,1.7412,1.739,1.7409,1.7432,1.7468,1.7483,1.7508,1.7549,1.758,1.7583,1.7612,1.7637,1.7628,1.7645,1.7643,1.7645,1.7545,1.7532,1.7652,1.7652,1.7652,1.7652,1.7652,1.7652,1.7386,1.7439,1.7436,1.7495,1.7502,1.7542,1.7555,1.7572,1.7584,1.7631,1.7657,1.7659,1.767,1.77,1.7728,1.7729,1.7741,1.7762,1.7759,1.7665,1.7652,1.7639,1.7627,1.7765,1.7765,1.7856,1.7857,1.7857]},{"header":{"parameterUnit":"m.s-1","parameterCategory":1,"la1":30.2991,"la2":30.254,"lo1":-89.0895,"lo2":-89.0444,"dy":0.0017,"dx":0.0017,"nx":28,"ny":28,"refTime":"2025-11-06T09:00:00:Z","depth":0,"parameterNumber":3,"parameterNumberName":"V-component_of_WINDS"},"data":[0,0,0,0,0,0,0,0,0,0,0,0,0,0,0,0,0,0,0,0,0,0,0,0,0,0,0,0,0,0,0,0,0,0,0,0,0,0,0,0,0,0,0,0,0,0,0,0,0,0,0,0,0,0,0,0,0,0,3.0882,3.0882,0,3.0882,3.0882,3.0882,3.0837,3.0836,3.0835,3.0834,3.0832,3.0834,3.0835,0,0,0,0,0,0,0,0,0,0,0,0,0,3.0844,3.0844,3.0882,3.0882,3.0882,3.0882,3.0882,3.0882,3.0837,3.0836,3.0835,3.0833,3.0832,3.0833,3.0835,0,0,0,0,0,0,0,0,0,0,0,0,0,3.0853,3.0845,3.0882,3.086,3.0858,3.0882,3.0882,3.0882,3.0838,3.0836,3.0834,3.0833,3.0832,3.0833,3.0835,3.0879,0,0,3.084,3.084,0,0,0,0,0,0,0,0,3.0853,3.0855,3.0863,3.0861,3.0859,3.0858,3.0868,3.0881,3.0838,3.0845,3.0834,3.0832,3.0842,3.0843,3.0847,3.0879,3.0879,3.084,3.0841,3.0841,3.0842,0,0,0,0,0,0,0,3.0852,3.0855,3.0882,3.0863,3.0861,3.085,3.0849,3.087,3.0854,3.0845,3.0841,3.0842,3.0841,3.0845,3.0846,3.0879,3.084,3.0841,3.0842,3.0843,3.0949,3.0951,0,0,0,0,0,0,3.0855,3.0854,3.0882,3.0882,3.0852,3.0852,3.0851,3.086,3.0853,3.085,3.0843,3.084,3.0843,3.0844,3.0846,3.0898,3.0841,3.0843,3.0844,3.0947,3.0949,3.0951,0,0,0,0,0,0,3.0854,3.0858,3.0882,3.0867,3.0869,3.0854,3.0864,3.0861,3.0865,3.0852,3.0849,3.0851,3.0842,3.0844,3.0872,3.0897,3.0844,3.0845,3.0945,3.0948,3.095,3.1003,0,0,0,0,0,0,3.0853,3.0858,3.0875,3.0868,3.087,3.0908,3.0866,3.0862,3.0868,3.0863,3.0859,3.0856,3.0841,3.0869,3.0873,3.0899,3.0846,3.0942,3.0946,3.0949,3.0999,3.1007,3.1014,0,0,0,0,0,3.0852,3.0889,3.0876,3.0879,3.0891,3.0909,3.0911,3.0893,3.087,3.0887,3.0879,3.0856,3.0894,3.0873,3.0876,3.0903,3.0941,3.0945,3.0949,3.0995,3.1005,3.1014,0,0,0,0,0,0,3.0898,3.0888,3.0873,3.0909,3.091,3.0902,3.0922,3.0904,3.0912,3.0907,3.0884,3.0883,3.0915,3.0911,3.0888,3.0946,3.0913,3.0919,3.0947,3.0957,3.0964,3.0965,3.0847,0,0,0,0,0,3.0913,3.0929,3.0918,3.0951,3.0953,3.0938,3.0945,3.0931,3.0931,3.0932,3.0926,3.0927,3.0939,3.0947,3.0958,3.0998,3.0996,3.1018,3.1025,3.1032,3.1037,3.1058,3.1068,3.0965,3.0965,3.0965,0,0,3.0943,3.0939,3.095,3.096,3.096,3.0977,3.0938,3.0958,3.097,3.0934,3.0961,3.0956,3.0956,3.099,3.1005,3.0989,3.1065,3.1037,3.1042,3.1044,3.1064,3.1073,3.1082,3.0968,3.0968,3.0967,0,0,3.1006,3.1005,3.1032,3.1033,3.1033,3.1023,3.103,3.1024,3.102,3.1046,3.102,3.1034,3.1055,3.1056,3.106,3.1124,3.1104,3.1128,3.1169,3.119,3.1198,3.1205,3.1229,3.1238,3.1133,3.1133,3.1133,0,3.1043,3.1068,3.1049,3.107,3.1075,3.1045,3.1072,3.1074,3.1077,3.1081,3.1063,3.1089,3.1087,3.1121,3.1137,3.1141,3.1148,3.1129,3.1199,3.1206,3.1212,3.1234,3.1243,3.1136,3.1136,3.1136,3.1135,0,3.1114,3.1132,3.1154,3.1159,3.1167,3.1191,3.1175,3.1185,3.1171,3.1162,3.1189,3.1186,3.1195,3.1202,3.1188,3.1235,3.1225,3.1203,3.117,3.1225,3.1246,3.1254,3.1141,3.1139,3.1139,3.1138,0,0,3.1207,3.1201,3.121,3.1212,3.121,3.1223,3.1246,3.1256,3.1265,3.1269,3.1288,3.1307,3.1287,3.1291,3.1276,3.1295,3.1347,3.127,3.127,3.1286,3.1399,3.1416,3.1427,3.1333,3.1335,3.1336,3.14,0,3.1269,3.1309,3.1292,3.1333,3.1349,3.1321,3.1341,3.1342,3.1335,3.1347,3.1339,3.1353,3.1325,3.1328,3.1345,3.1337,3.137,3.1332,3.1351,3.1352,3.1353,3.1437,3.1455,3.1516,3.1407,3.1409,3.141,0,3.1347,3.1354,3.1397,3.1393,3.1399,3.1418,3.1426,3.1438,3.1439,3.1432,3.1437,3.1419,3.1441,3.1408,3.1439,3.1414,3.142,3.1418,3.1419,3.1421,3.1385,3.1442,3.1534,3.1544,3.1422,3.1421,3.142,0,3.1411,3.1432,3.146,3.1463,3.1459,3.1473,3.1471,3.147,3.1477,3.1484,3.1489,3.1498,3.1503,3.151,3.1495,3.1472,3.1528,3.1493,3.1523,3.1524,3.1537,3.1537,3.1633,3.154,3.154,3.154,3.154,0,3.1482,3.151,3.1489,3.1507,3.1537,3.1518,3.1548,3.1544,3.1543,3.1559,3.1534,3.155,3.1528,3.1542,3.153,3.1558,3.156,3.1555,3.1552,3.1558,3.1559,3.1563,3.1558,3.1542,3.1542,3.1541,3.1541,0,3.156,3.1547,3.1576,3.157,3.1569,3.1592,3.1586,3.1603,3.1594,3.1615,3.1619,3.1605,3.162,3.1605,3.1619,3.1611,3.1648,3.1638,3.1648,3.1646,3.1677,3.1675,3.178,3.1793,3.1691,3.1692,3.1693,0,3.1606,3.1627,3.1624,3.1633,3.1634,3.1649,3.1656,3.1638,3.1646,3.1649,3.1665,3.1678,3.1687,3.1712,3.1704,3.1714,3.1705,3.1741,3.1706,3.1712,3.1706,3.1706,3.1708,3.1748,3.1749,3.175,3.1751,0,3.1691,3.1684,3.1696,3.1706,3.1716,3.1723,3.1727,3.1737,3.1717,3.1728,3.1744,3.1751,3.1765,3.1779,3.1787,3.1785,3.1765,3.1762,3.1769,3.1776,3.1782,3.178,3.1668,3.176,3.1759,3.1758,3.1758,3.1757,3.1755,3.1773,3.1773,3.1788,3.1789,3.1795,3.181,3.1803,3.1816,3.1827,3.1815,3.1834,3.1834,3.1843,3.1843,3.1858,3.1843,3.1853,3.1856,3.186,3.1865,3.1779,3.1859,3.1859,3.1858,3.1858,3.1858,0,3.184,3.1839,3.1852,3.186,3.1871,3.1852,3.1856,3.1867,3.1884,3.1886,3.1896,3.1914,3.1927,3.192,3.1931,3.1944,3.1935,3.1947,3.1947,3.1947,3.1877,3.187,3.1954,3.1954,3.1954,3.1954,3.1954,3.1954,3.1885,3.1914,3.1907,3.1937,3.1935,3.1954,3.1958,3.1963,3.1965,3.1986,3.1997,3.1992,3.199,3.2001,3.2012,3.201,3.2015,3.2031,3.2025,3.1961,3.1951,3.1942,3.1936,3.2032,3.2032,3.2094,3.2094,3.2095]}]]